Home > Weather > Gjøvik > Past weeks

Flag for Norway Past Weather in Gjøvik, Norway — Yesterday and Last 2 Weeks

Now
75 °F

Mild.


Feels Like: 78 °F
Forecast: 55 / 69 °F
Wind: 3 mph from Southwest

Location: Lillehammer-Saetherengen

Current Time: Jun 25, 2016 at 4:07:46 PM

Latest Report: Jun 25, 2016 at 3:00 PM


Visibility: N/A

Pressure: 29.91 "Hg

Humidity: 49%

Dew Point: 54 °F

Location of GjøvikLocation

Past Weather in Gjøvik — Graph

°F

Gjøvik Temperature Yesterday

Maximum temperature yesterday: 64 °F (at 4:00 PM)
Minimum temperature yesterday: 50 °F (at 5:00 AM)
Average temperature yesterday: 58 °F

High & Low Weather Summary for the Past Weeks

 TemperatureHumidityPressure
High74 °F (Jun 25, 2:00 PM)96% (Jun 16, 3:00 AM)30.12 "Hg (Jun 16, 3:00 AM)
Low41 °F (Jun 11, 4:00 AM)25% (Jun 14, 6:00 PM)29.55 "Hg (Jun 16, 8:00 PM)
Average58 °F64%29.82 "Hg
* Reported Jun 10 2:00 PM — Jun 25 2:00 PM, Gjøvik, Weather by CustomWeather, © 2016

Note: Actual official high and low records may vary slightly from our data, if they occured in-between our weather recording intervals... More about our weather records

Advertising

Gjøvik Weather History for the Previous 24 Hours

Scroll right to see more
 ConditionsComfort  
Time TempWeatherWind HumidityBarometerVisibility
2:00 PM
Sat, Jun 25
74 °FMild.2 mph52%29.91 "HgN/A
1:00 PM70 °FMild.3 mph55%29.92 "HgN/A
12:00 PM71 °FMild.1 mph59%29.93 "HgN/A
11:00 AM69 °FMild.1 mph64%29.92 "HgN/A
10:00 AM66 °FMild.2 mph73%29.91 "HgN/A
9:00 AM65 °FMild.2 mph77%29.90 "HgN/A
8:00 AM64 °FMild.2 mph79%29.90 "HgN/A
7:00 AM63 °FMild.2 mph83%29.88 "HgN/A
6:00 AM60 °FCool.2 mph94%29.88 "HgN/A
5:00 AM60 °FCool.1 mph94%29.87 "HgN/A
4:00 AM60 °FCool.2 mph96%29.87 "HgN/A
3:00 AM59 °FCool.1 mph96%29.87 "HgN/A
2:00 AM59 °FCool.1 mph96%29.86 "HgN/A
1:00 AM59 °FCool.1 mph96%29.86 "HgN/A
12:00 AM59 °FCool.1 mph96%29.86 "HgN/A
11:00 PM
Fri, Jun 24
59 °FCool.1 mph95%29.88 "HgN/A
10:00 PM59 °FCool.2 mph95%29.86 "HgN/A
9:00 PM60 °FCool.1 mph95%29.87 "HgN/A
8:00 PM60 °FCool.No wind94%29.87 "HgN/A
7:00 PM60 °FCool.No wind92%29.89 "HgN/A
6:00 PM61 °FCool.No wind91%29.90 "HgN/A
4:00 PM64 °FMild.1 mph76%29.94 "HgN/A
Weather by CustomWeather, © 2016

See weather overviewHow to use our weather pages